OBJECT A, 65259

Orbit data source: Space-Track

You're viewing an Uncataloged Satellite

Recently launched and/or uncataloged satellites may have evolving metadata. Metadata may include but not limited to: Owner, Maufacturer, Bus, Motor, and Mission.

OBJECT A, 65259 is a Chinese satellite in SSO that was launched on Tue, 19 Aug 2025 UTC via a LIJIAN-1 launch vehicle from the Jiuquan Satellite Launch Center, China (JSC). Unknown objects in Earth's orbit typically refer to objects detected orbiting the Earth but have not yet been identified or cataloged. These objects could be anything from previously untracked satellites, spent rocket stages, debris from satellite collisions, or even natural meteoroids temporarily captured by Earth's gravity.

Loading next visibility...
Identifier
65259, 2025-180A
Orbit
SSO
Country
Flag of CNCN / PRC
Related business
None
Manufacturer
Unknown
Mission
Operational Commercial Radar Imaging
Bus & Motor
Unknown
Mass
Unknown
Launch date (UTC)
2025-08-19 (10 months ago)
Launch vehicle
LIJIAN-1
Launch site
Jiuquan Satellite Launch Center, China (JSC)
Object type
Unknown
Shape & HBR
Box + 3 Pan, 1.1 m
Radar Cross Section
3.533 m², Large (>1 m²)

Expand to show TLE details & history
Last TLE update: 2 days ago

TLE from 2 days ago
0 OBJECT A
1 65259U 25180A   26169.58202126  .00012758  00000-0  54378-3 0  9996
2 65259  97.5211 298.4346 0010810 311.7658  48.2654 15.23032458 46003
Epoch: 2026-06-18T13:58Z
TLE epoch observation values (Epoch: 2026-06-18T13:58:06.636Z)
Latitude
-0.00002°
Longitude
-177.91633°
Altitude
494.847 km
Speed
7.62 km/s
True Right ascension
19h 53m 44s
True Declination
0° 00' 00"
Sunlit
Object was in full shadow at epoch
Visualization orbit readout
Latitude
Unknown
Longitude
Unknown
Altitude
Unknown
Speed
Unknown
Apparent Right ascension
Unknown
Apparent Declination
Unknown
Sunlit
N/A
Visualization observer readout
Local Sidereal Time
07:19:33
Azimuth
Unknown
Elevation
Unknown
Doppler factor
Unknown
Orbital elements
Apogee altitude
501.095 km
Perigee altitude
486.238 km
Semi-major axis
6,871.804 km
Eccentricity
0.00108
Inclination
97.5211°
RAAN
298.4346°
Arg. of periapsis
311.7658°
True anomaly
48.35792°
Mean anomaly
48.2654°
Eccentric anomaly
48.31165°
Mean motion
3.81011 °/min
Orbital period
94.49 mins
BSTAR
0.00054378
Loading maneuver chart data...
Computing Atmospheric mass density...
Loading historical data...
Loading historical data...
Loading historical data...
Loading historical data...
Loading historical data...
Loading historical data...
Loading historical data...
Other satellites on launch #180 in the year 2025 (2025-08-19 UTC)

Documentation

Showing up to 5 results
|